Casa Grande, AZ

5:37 PM MST on October 22, 2019 (GMT -0700)
Casa Grande Municipal

Weather History for KCGZ - September, 2019

Change the Weather History Date:

Saturday, September 21, 2019

  Actual Average Record
Temperature  
Mean Temperature 78 °F -  
Max Temperature 93 °F 94 °F 102 °F (2001)
Min Temperature 63 °F 67 °F 57 °F (2004)
Cooling Degree Days 13    
Growing Degree Days 28 (Base 50)    
Moisture  
Dew Point 37 °F    
Average Humidity 23    
Maximum Humidity 46    
Minimum Humidity 14    
Precipitation  
Precipitation 0.00 in - - ()
Sea Level Pressure  
Sea Level Pressure 29.85 in    
Wind  
Wind Speed 3 mph ()    
Max Wind Speed 9 mph    
Max Gust Speed -    
Visibility 10.0 miles    
Events      
Averages and records for this station are not official NWS values.
T = Trace of Precipitation, MM = Missing Value Source: Averaged Metar Reports

Daily Weather History Graph

Daily Weather History Graph

Search for Another Location

Airport or City:

Astronomy

Sep. 21, 2019 Rise Set
Actual Time 6:14 AM MST 6:25 PM MST
Civil Twilight 5:49 AM MST 6:49 PM MST
Nautical Twilight 5:21 AM MST 7:18 PM MST
Astronomical Twilight 4:51 AM MST 7:47 PM MST
Moon 11:26 PM MST (9/21) 1:04 PM MST (9/21)
Length of Visible Light 13h 00m
Length of Day
12h 10m
Waning Gibbous, 53% of the Moon is Illuminated
Sep 21
Waning Gibbous
Sep 21
Last Quarter
Sep 28
New
Oct 5
First Quarter
Oct 13
Full

Hourly Weather History & Observations

Time (MST) Temp. Dew Point Humidity Pressure Visibility Wind Dir Wind Speed Gust Speed Precip Events Conditions
12:56 AM 72.0 °F 34.0 °F 25% 29.83 in 10.0 mi WSW 3.5 mph - N/A   Clear
1:56 AM 70.0 °F 33.1 °F 26% 29.83 in 10.0 mi Calm Calm - N/A   Clear
2:56 AM 71.1 °F 37.0 °F 29% 29.83 in 10.0 mi Calm Calm - N/A   Clear
3:56 AM 70.0 °F 41.0 °F 35% 29.84 in 10.0 mi Calm Calm - N/A   Clear
4:56 AM 66.0 °F 42.1 °F 42% 29.86 in 10.0 mi SSW 5.8 mph - N/A   Clear
5:56 AM 64.0 °F 43.0 °F 46% 29.87 in 10.0 mi Calm Calm - N/A   Clear
6:56 AM 63.0 °F 39.0 °F 41% 29.88 in 10.0 mi ENE 3.5 mph - N/A   Clear
7:56 AM 73.9 °F 46.0 °F 37% 29.89 in 10.0 mi ENE 3.5 mph - N/A   Clear
8:56 AM 79.0 °F 45.0 °F 30% 29.90 in 10.0 mi SSW 5.8 mph - N/A   Clear
9:56 AM 82.9 °F 41.0 °F 23% 29.91 in 10.0 mi SSW 4.6 mph - N/A   Clear
10:56 AM 87.1 °F 34.0 °F 15% 29.90 in 10.0 mi Variable 5.8 mph - N/A   Clear
11:56 AM 88.0 °F 37.0 °F 16% 29.88 in 10.0 mi South 5.8 mph - N/A   Clear
12:56 PM 89.1 °F 36.0 °F 15% 29.86 in 10.0 mi Calm Calm - N/A   Clear
1:56 PM 91.0 °F 37.0 °F 15% 29.83 in 10.0 mi WNW 9.2 mph - N/A   Clear
2:56 PM 91.9 °F 39.0 °F 16% 29.81 in 10.0 mi Variable 6.9 mph - N/A   Clear
3:56 PM 93.0 °F 37.9 °F 15% 29.79 in 10.0 mi Variable 6.9 mph - N/A   Clear
4:56 PM 91.9 °F 37.0 °F 15% 29.79 in 10.0 mi Variable 5.8 mph - N/A   Clear
5:56 PM 91.0 °F 35.1 °F 14% 29.79 in 10.0 mi NW 6.9 mph - N/A   Clear
6:56 PM 84.9 °F 34.0 °F 16% 29.81 in 10.0 mi NNW 5.8 mph - N/A   Clear
7:56 PM 82.9 °F 32.0 °F 16% 29.82 in 10.0 mi NNW 6.9 mph - N/A   Clear
8:56 PM 82.0 °F 30.0 °F 15% 29.84 in 9.0 mi NNE 8.1 mph - N/A   Clear
9:56 PM 78.1 °F 30.9 °F 18% 29.86 in 10.0 mi North 6.9 mph - N/A   Clear
10:56 PM 75.9 °F 30.0 °F 19% 29.86 in 10.0 mi North 8.1 mph - N/A   Clear
11:56 PM 72.0 °F 30.0 °F 21% 29.86 in 10.0 mi WSW 3.5 mph - N/A   Clear